Starlink 4162

operational
NORAD ID: 53288 Int'l Des: 2022-086 Owner: SPXS Country: US Constellation: starlink
LEOCIRCULAR

About Starlink 4162

Description loading...

Live Position

Loading 3D Globe...

Upcoming Passes

Altitude History

Altitude vs Time

uPlot chart will show altitude changes over time

Two-Line Element Set

1 53288U 22086AY 25310.58864875 .00003368 00000-0 22950-3 0 9997
2 53288 53.2180 16.7399 0001284 90.1470 269.9670 15.08855455182600
Epoch: Nov 6, 2025 • Age: 14 hours

Current Status

Altitude 544.3 km
Velocity 7.59 km/s
Sub-Earth Point -15.85°S, 109.95°W
Launch Date Jul 24, 2022
Age 3.2 years
Type internet

Technical Details

Classification Payload
Mass 297.00 kg
Dry Mass 275.00 kg
Total Mass 297.00 kg
Length 0.20 m
Diameter 2.80 m
Span 9.00 m
Shape Box + pan
Manufacturer SPXS
Bus Type Starlink
Phase Status In Orbit
Owner/State SPXS/US

Large Constellations

Loading constellations...